When you browse on this site, cookies collect data to enhance your experience and personalize the content and advertising you see.
Visit our Privacy Policy to learn more. By continuing to use the site, you agree to this use of cookies and data.
  • En España
  • Lista de países
  • Para 7 días
  • Temperatura del agua
  • Mapa Satelital
  • El tiempo en el mapa
  • Informadores
  • user-avatar
    Iniciar sesión

    Tiempo cada hora Ahmedabad

    Hoy, 18 Abril, Jueves

    Tiempo Temperatura Precipitaciones Viento Presión Humedad
    00:00 +30°C° 0 mm 3 mps 753 mmHg 43%
    01:00 +30°C° 0 mm 3 mps 753 mmHg 45%
    02:00 +29°C° 0 mm 3 mps 753 mmHg 47%
    03:00 +29°C° 0 mm 3 mps 753 mmHg 49%
    04:00 +29°C° 0 mm 3 mps 753 mmHg 51%
    05:00 +28°C° 0 mm 2 mps 753 mmHg 54%
    06:00 +29°C° 0 mm 3 mps 754 mmHg 51%
    07:00 +30°C° 0 mm 3 mps 754 mmHg 47%
    08:00 +31°C° 0 mm 3 mps 754 mmHg 44%
    09:00 +34°C° 0 mm 3 mps 754 mmHg 38%
    10:00 +35°C° 0 mm 3 mps 754 mmHg 31%
    11:00 +37°C° 0 mm 2 mps 754 mmHg 25%
    12:00 +37°C° 0 mm 3 mps 754 mmHg 23%
    13:00 +38°C° 0 mm 3 mps 753 mmHg 20%
    14:00 +39°C° 0 mm 3 mps 753 mmHg 18%
    15:00 +39°C° 0 mm 3 mps 752 mmHg 17%
    16:00 +40°C° 0 mm 4 mps 752 mmHg 17%
    17:00 +40°C° 0 mm 4 mps 752 mmHg 16%
    18:00 +38°C° 0 mm 4 mps 752 mmHg 17%
    19:00 +37°C° 0 mm 4 mps 752 mmHg 18%
    20:00 +35°C° 0 mm 4 mps 752 mmHg 19%
    21:00 +34°C° 0 mm 3 mps 753 mmHg 20%
    22:00 +34°C° 0 mm 3 mps 753 mmHg 21%
    23:00 +33°C° 0 mm 3 mps 753 mmHg 22%

    Mañana, 19 Abril, Viernes

    Tiempo Temperatura Precipitaciones Viento Presión Humedad
    00:00 +31°C° 0 mm 3 mps 753 mmHg 23%
    01:00 +31°C° 0 mm 3 mps 752 mmHg 25%
    02:00 +30°C° 0 mm 3 mps 752 mmHg 26%
    03:00 +30°C° 0 mm 3 mps 752 mmHg 27%
    04:00 +29°C° 0 mm 3 mps 752 mmHg 27%
    05:00 +29°C° 0 mm 3 mps 752 mmHg 28%
    06:00 +30°C° 0 mm 3 mps 753 mmHg 27%
    07:00 +33°C° 0 mm 3 mps 753 mmHg 25%
    08:00 +34°C° 0 mm 4 mps 754 mmHg 24%
    09:00 +36°C° 0 mm 4 mps 753 mmHg 21%
    10:00 +37°C° 0 mm 4 mps 753 mmHg 18%
    11:00 +40°C° 0 mm 4 mps 753 mmHg 15%
    12:00 +39°C° 0 mm 3 mps 753 mmHg 14%
    13:00 +40°C° 0 mm 3 mps 752 mmHg 13%
    14:00 +42°C° 0 mm 3 mps 751 mmHg 12%
    15:00 +42°C° 0 mm 3 mps 751 mmHg 12%
    16:00 +42°C° 0 mm 3 mps 750 mmHg 11%
    17:00 +42°C° 0 mm 3 mps 750 mmHg 11%
    18:00 +39°C° 0 mm 3 mps 750 mmHg 13%
    19:00 +38°C° 0 mm 2 mps 751 mmHg 14%
    20:00 +36°C° 0 mm 2 mps 751 mmHg 16%
    21:00 +35°C° 0 mm 2 mps 751 mmHg 17%
    22:00 +34°C° 0 mm 2 mps 751 mmHg 19%
    23:00 +34°C° 0 mm 2 mps 751 mmHg 20%

    Pasado mañana, 20 Abril, Sábado

    Tiempo Temperatura Precipitaciones Viento Presión Humedad
    00:00 +32°C° 0 mm 2 mps 751 mmHg 21%
    01:00 +31°C° 0 mm 2 mps 750 mmHg 22%
    02:00 +31°C° 0 mm 2 mps 750 mmHg 23%
    03:00 +30°C° 0 mm 2 mps 750 mmHg 24%
    04:00 +30°C° 0 mm 3 mps 750 mmHg 25%
    05:00 +30°C° 0 mm 3 mps 750 mmHg 26%
    06:00 +31°C° 0 mm 3 mps 751 mmHg 26%
    07:00 +33°C° 0 mm 3 mps 751 mmHg 26%
    08:00 +35°C° 0 mm 3 mps 752 mmHg 26%
    09:00 +36°C° 0 mm 3 mps 752 mmHg 22%
    10:00 +38°C° 0 mm 2 mps 752 mmHg 19%
    11:00 +40°C° 0 mm 2 mps 752 mmHg 15%
    12:00 +41°C° 0 mm 1 mps 751 mmHg 14%
    13:00 +42°C° 0 mm 1 mps 750 mmHg 12%
    14:00 +40°C° 0 mm 0 mps 749 mmHg 11%
    15:00 +43°C° 0 mm 1 mps 749 mmHg 10%
    16:00 +42°C° 0 mm 1 mps 749 mmHg 10%
    17:00 +42°C° 0 mm 1 mps 748 mmHg 10%
    18:00 +41°C° 0 mm 2 mps 749 mmHg 11%
    19:00 +39°C° 0 mm 3 mps 749 mmHg 13%
    20:00 +38°C° 0 mm 4 mps 749 mmHg 14%
    21:00 +37°C° 0 mm 4 mps 750 mmHg 15%
    22:00 +36°C° 0 mm 4 mps 750 mmHg 15%
    23:00 +35°C° 0 mm 3 mps 750 mmHg 16%

    21 Abril, Domingo

    Tiempo Temperatura Precipitaciones Viento Presión Humedad
    00:00 +35°C° 0 mm 3 mps 750 mmHg 16%
    01:00 +34°C° 0 mm 3 mps 749 mmHg 17%
    02:00 +34°C° 0 mm 3 mps 749 mmHg 17%
    03:00 +33°C° 0 mm 3 mps 749 mmHg 21%
    04:00 +31°C° 0 mm 3 mps 749 mmHg 25%
    05:00 +30°C° 0 mm 2 mps 749 mmHg 29%
    06:00 +31°C° 0 mm 3 mps 750 mmHg 28%
    07:00 +33°C° 0 mm 3 mps 751 mmHg 27%
    08:00 +35°C° 0 mm 3 mps 751 mmHg 26%
    09:00 +37°C° 0 mm 3 mps 751 mmHg 22%
    10:00 +39°C° 0 mm 3 mps 751 mmHg 18%
    11:00 +42°C° 0 mm 3 mps 751 mmHg 14%
    12:00 +42°C° 0 mm 2 mps 750 mmHg 12%
    13:00 +43°C° 0 mm 2 mps 750 mmHg 10%
    14:00 +45°C° 0 mm 2 mps 749 mmHg 9%
    15:00 +45°C° 0 mm 2 mps 749 mmHg 9%
    16:00 +44°C° 0 mm 3 mps 748 mmHg 9%
    17:00 +44°C° 0 mm 3 mps 748 mmHg 9%
    18:00 +43°C° 0 mm 4 mps 749 mmHg 10%
    19:00 +41°C° 0 mm 4 mps 749 mmHg 12%
    20:00 +38°C° 0 mm 4 mps 750 mmHg 14%
    21:00 +37°C° 0 mm 4 mps 750 mmHg 15%
    22:00 +36°C° 0 mm 3 mps 750 mmHg 16%
    23:00 +35°C° 0 mm 3 mps 750 mmHg 17%

    22 Abril, Lunes

    Tiempo Temperatura Precipitaciones Viento Presión Humedad
    00:00 +35°C° 0 mm 3 mps 750 mmHg 19%
    01:00 +34°C° 0 mm 3 mps 749 mmHg 20%
    02:00 +32°C° 0 mm 2 mps 749 mmHg 22%
    03:00 +31°C° 0 mm 2 mps 749 mmHg 27%
    04:00 +30°C° 0 mm 2 mps 749 mmHg 32%
    05:00 +29°C° 0 mm 2 mps 749 mmHg 38%
    06:00 +30°C° 0 mm 3 mps 750 mmHg 37%
    07:00 +33°C° 0 mm 3 mps 751 mmHg 36%
    08:00 +34°C° 0 mm 3 mps 751 mmHg 36%
    09:00 +36°C° 0 mm 3 mps 751 mmHg 29%
    10:00 +39°C° 0 mm 3 mps 751 mmHg 23%
    11:00 +42°C° 0 mm 3 mps 751 mmHg 17%
    12:00 +43°C° 0 mm 3 mps 751 mmHg 15%
    13:00 +44°C° 0 mm 3 mps 750 mmHg 13%
    14:00 +45°C° 0 mm 3 mps 749 mmHg 11%
    15:00 +45°C° 0 mm 3 mps 749 mmHg 11%
    16:00 +45°C° 0 mm 3 mps 749 mmHg 10%
    17:00 +45°C° 0 mm 3 mps 749 mmHg 10%
    18:00 +43°C° 0 mm 3 mps 749 mmHg 11%
    19:00 +40°C° 0 mm 3 mps 750 mmHg 12%
    20:00 +38°C° 0 mm 3 mps 750 mmHg 14%
    21:00 +38°C° 0 mm 3 mps 750 mmHg 15%
    22:00 +37°C° 0 mm 3 mps 751 mmHg 16%
    23:00 +36°C° 0 mm 2 mps 751 mmHg 18%

    23 Abril, Martes

    Tiempo Temperatura Precipitaciones Viento Presión Humedad
    00:00 +35°C° 0 mm 3 mps 750 mmHg 21%
    01:00 +34°C° 0 mm 4 mps 750 mmHg 23%
    02:00 +34°C° 0 mm 4 mps 750 mmHg 26%
    03:00 +33°C° 0 mm 4 mps 750 mmHg 33%
    04:00 +32°C° 0 mm 4 mps 750 mmHg 40%
    05:00 +30°C° 0 mm 3 mps 750 mmHg 47%
    06:00 +31°C° 0 mm 3 mps 751 mmHg 46%
    07:00 +33°C° 0 mm 3 mps 751 mmHg 44%
    08:00 +33°C° 0 mm 3 mps 752 mmHg 43%
    09:00 +36°C° 0 mm 3 mps 752 mmHg 36%
    10:00 +38°C° 0 mm 3 mps 752 mmHg 28%
    11:00 +42°C° 0 mm 3 mps 752 mmHg 20%
    12:00 +43°C° 0 mm 3 mps 751 mmHg 18%
    13:00 +44°C° 0 mm 3 mps 750 mmHg 15%
    14:00 +46°C° 0 mm 3 mps 750 mmHg 12%
    15:00 +45°C° 0 mm 4 mps 749 mmHg 12%
    16:00 +45°C° 0 mm 4 mps 749 mmHg 12%
    17:00 +45°C° 0 mm 4 mps 749 mmHg 12%
    18:00 +43°C° 0 mm 4 mps 750 mmHg 14%
    19:00 +42°C° 0 mm 4 mps 750 mmHg 15%
    20:00 +39°C° 0 mm 3 mps 751 mmHg 17%
    21:00 +38°C° 0 mm 3 mps 751 mmHg 18%
    22:00 +37°C° 0 mm 3 mps 751 mmHg 19%
    23:00 +36°C° 0 mm 3 mps 751 mmHg 21%
    Mostrar más